DL1NER Weather Reports


time (UTC)temp
F
wind
direction
speed
knots
gust
knots
rain 1hr
in
rain 24hr
in
rain mn
in
humidity
%
barometer
mb
20260505122013 77 244 1.7 6.1 0.00 0.00 0.00 38 1005.6
20260505121012 76 215 1.7 4.3 0.00 0.00 0.00 39 1005.6
20260505120012 76 252 2.6 7.8 0.00 0.00 0.00 41 1005.7
20260505115012 76 294 1.7 7.0 0.00 0.00 0.00 44 1005.9
20260505114011 76 327 3.5 8.7 0.00 0.00 0.00 44 1005.9
20260505113012 74 242 2.6 7.0 0.00 0.00 0.00 45 1006.0
20260505112012 74 288 1.7 7.8 0.00 0.00 0.00 45 1006.0
20260505111012 74 92 1.7 5.2 0.00 0.00 0.00 45 1006.1
20260505102011 73 224 2.6 6.1 0.00 0.00 0.00 49 1006.7
20260505101011 73 279 1.7 6.1 0.00 0.00 0.00 49 1006.7
20260505100012 73 344 1.7 7.0 0.00 0.00 0.00 50 1006.8
20260505095011 71 247 1.7 5.2 0.00 0.00 0.00 50 1006.9
20260505094012 71 247 1.7 5.2 0.00 0.00 0.00 50 1006.9
20260505093012 72 279 2.6 5.2 0.00 0.00 0.00 50 1007.2
20260505092011 71 34 1.7 5.2 0.00 0.00 0.00 49 1007.2
20260505091011 71 344 2.6 7.0 0.00 0.00 0.00 51 1007.3
20260505090012 71 350 2.6 7.8 0.00 0.00 0.00 51 1007.5
20260505085011 70 360 1.7 7.0 0.00 0.00 0.00 50 1007.6
20260505084011 70 16 2.6 7.0 0.00 0.00 0.00 46 1007.7
20260505083012 70 24 2.6 6.1 0.00 0.00 0.00 52 1007.7
20260505082012 69 5 1.7 4.3 0.00 0.00 0.00 52 1007.8
20260505081010 67 336 1.7 3.5 0.00 0.00 0.00 55 1007.9
20260505080010 67 336 1.7 3.5 0.00 0.00 0.00 55 1007.9
20260505075011 67 325 0.9 2.6 0.00 0.00 0.00 55 1008.1
20260505074011 67 325 0.0 3.5 0.00 0.00 0.00 54 1008.2
20260505073011 67 323 1.7 4.3 0.00 0.00 0.00 52 1008.2
20260505072010 65 316 0.9 4.3 0.00 0.00 0.00 60 1008.4
20260505071011 65 316 0.9 4.3 0.00 0.00 0.00 60 1008.4
20260505070010 64 317 0.9 2.6 0.00 0.00 0.00 58 1008.6
20260505065010 62 321 0.9 3.5 0.00 0.00 0.00 59 1008.5
20260505064010 61 325 0.9 3.5 0.00 0.00 0.00 61 1008.6
20260505063010 61 325 1.7 3.5 0.00 0.00 0.00 63 1008.6
20260505062012 61 325 1.7 3.5 0.00 0.00 0.00 63 1008.6